CSS (TIANHE)

Last updated on Tue Sep 16 2025 00:02:11 GMT+0000 (Coordinated Universal Time)

1 48274U 21035A 25258.50055160 .00030280 00000+0 37301-3 0 9999 2 48274 41.4641 193.1436 0004035 348.8872 11.1877 15.59545182250249
UTC large
Height (km)
Speed (km/s)
/
Latitude / Longitude
Inclination (degrees)
Orbital Period (minutes)
Azimuth
Elevation
Range (km)
Doppler Factor

Next 0 passes for location: London (51.5072 / 0.1276)

Sorry there are no passes over London.